Regional Weather Roundup
Issued by NWS

Home | Current Version | Previous Version | Text Only | Print | Product List | Glossary Off
Versions: 1 2 3 4 5 6 7 8 9 10 11 12 13 14 15 16 17 18 19 20 21 22 23 24 25 26 27 28 29 30 31 32 33 34 35 36 37 38 39 40 41 42 43 44 45 46 47 48 49 50

000
ASUS44 KOUN 040210
RWROK

WEATHER ROUNDUP FOR OKLAHOMA
NATIONAL WEATHER SERVICE NORMAN OK
800 PM CST SAT DEC 03 2016

NOTE: "FAIR" INDICATES FEW OR NO CLOUDS BELOW 12,000 FEET WITH NO
      SIGNIFICANT WEATHER AND/OR OBSTRUCTIONS TO VISIBILITY.

OKZ001>007-009>012-014-015-017-040300-
NORTHWEST OKLAHOMA AND THE PANHANDLE

CITY           SKY/WX    TMP DP  RH WIND       PRES   REMARKS
GAGE           CLOUDY    41  40  96 SE5       30.03S
GUYMON         LGT RAIN  38  37  97 CALM      30.01R
ENID/WOODRING  DRIZZLE   45  45 100 SE12      30.06F FOG
$$

OKZ016-021>023-033>039-044-045-040300-
SOUTHWEST OKLAHOMA

CITY           SKY/WX    TMP DP  RH WIND       PRES   REMARKS
LAWTON/REGL    CLOUDY    45  43  93 E7        30.03S
LAWTON/FT SILL CLOUDY    44  44 100 E6        30.01F
FREDERICK      CLOUDY    45  44  97 E7        30.00S FOG
CLINTON        CLOUDY    43  41  93 NE9       30.04F FOG
HOBART         CLOUDY    44  42  93 E9        30.04S FOG
ALTUS AFB      CLOUDY    45  43  93 E7        30.02F
$$

OKZ018>020-024>031-040300-
CENTRAL OKLAHOMA

CITY           SKY/WX    TMP DP  RH WIND       PRES   REMARKS
OKLAHOMA CITY  CLOUDY    44  43  96 E7        30.05S
OKC/WILEY POST CLOUDY    44  42  93 E8        30.05F
OKC/TINKER AFB CLOUDY    43  43 100 E7        30.03F FOG
STILLWATER     CLOUDY    44  42  93 E8        30.07S FOG
GUTHRIE        CLOUDY    44  43  96 E7        30.06S
$$

OKZ008-013-054>072-040300-
NORTHEAST OKLAHOMA

CITY           SKY/WX    TMP DP  RH WIND       PRES   REMARKS
TULSA          DRIZZLE   45  44  97 E5        30.09R FOG
TULSA/JONES    LGT RAIN  46  42  86 NE6       30.09F FOG
PONCA CITY     LGT RAIN  44  41  89 SE9       30.08F FOG
BARTLESVILLE   CLOUDY    45  43  93 CALM      30.11F
MUSKOGEE       CLOUDY    45  43  93 SE6G17    30.10R
$$

OKZ032-040>043-046>053-073>077-040300-
SOUTH CENTRAL/SOUTHEAST OKLAHOMA

CITY           SKY/WX    TMP DP  RH WIND       PRES   REMARKS
ARDMORE/DWNTWN CLOUDY    45  43  93 E6        30.03F FOG
MCALESTER      LGT RAIN  46  44  93 E3        30.05S FOG
$$





USA.gov is the U.S. government's official web portal to all federal, state and local government web resources and services.